Grand Canyon, AZ

1:10 PM MST on April 27, 2017 (GMT -0700)
Grand Canyon National Park

Weather History for KGCN - September, 2013

Change the Weather History Date:

Sunday, September 29, 2013

  Actual Average Record
Temperature  
Mean Temperature 50 °F -  
Max Temperature 73 °F 69 °F 84 °F (2010)
Min Temperature 27 °F 35 °F 27 °F (1985)
Degree Days  
Heating Degree Days 15    
Moisture  
Dew Point 22 °F    
Average Humidity 44    
Maximum Humidity 75    
Minimum Humidity 12    
Precipitation  
Precipitation 0.00 in - - ()
Sea Level Pressure  
Sea Level Pressure 30.15 in    
Wind  
Wind Speed 3 mph (WSW)    
Max Wind Speed 12 mph    
Max Gust Speed 23 mph    
Visibility 10 miles    
Events      
Averages and records for this station are not official NWS values.
T = Trace of Precipitation, MM = Missing Value Source: NWS Daily Summary

Daily Weather History Graph

Daily Weather History Graph

Search for Another Location

Airport or City:

Trip Planner

Search our weather history database for the weather conditions in past years. The results will help you decide how hot, cold, wet, or windy it might be!

Date:

Astronomy

Sep. 29, 2013 Rise Set
Actual Time 6:22 AM MST 6:14 PM MST
Civil Twilight 5:56 AM MST 6:40 PM MST
Nautical Twilight 5:27 AM MST 7:09 PM MST
Astronomical Twilight 4:57 AM MST 7:39 PM MST
Moon 1:15 AM MST (9/29) 3:05 PM MST (9/29)
Length of Visible Light 12h 43m
Length of Day
11h 52m
Waning Crescent, 26% of the Moon is Illuminated
Sep 29
Waning Crescent
Oct 4
New
Oct 11
First Quarter
Oct 18
Full
Oct 26
Last Quarter

Hourly Weather History & Observations

Time (MST) Temp. Windchill Dew Point Humidity Pressure Visibility Wind Dir Wind Speed Gust Speed Precip Events Conditions
12:54 AM 32.0 °F - 21.9 °F 66% 30.18 in 10.0 mi Calm Calm - N/A   Smoke
1:54 AM 30.0 °F - 21.0 °F 69% 30.19 in 10.0 mi Calm Calm - N/A   Smoke
2:54 AM 30.0 °F - 21.0 °F 69% 30.19 in 10.0 mi Calm Calm - N/A   Smoke
3:54 AM 28.0 °F - 19.9 °F 72% 30.18 in 10.0 mi Calm Calm - N/A   Smoke
4:54 AM 27.0 °F - 19.9 °F 75% 30.19 in 10.0 mi Calm Calm - N/A   Smoke
5:54 AM 27.0 °F - 19.9 °F 75% 30.22 in 10.0 mi Calm Calm - N/A   Clear
6:54 AM 28.9 °F 25.2 °F 21.0 °F 72% 30.29 in 10.0 mi ENE 3.5 mph - N/A   Clear
7:54 AM 44.1 °F - 24.1 °F 45% 30.26 in 10.0 mi Calm Calm - N/A   Clear
8:54 AM 60.1 °F - 19.9 °F 21% 30.19 in 10.0 mi Calm Calm - N/A   Clear
9:54 AM 63.0 °F - 24.1 °F 23% 30.18 in 10.0 mi WSW 10.4 mph - N/A   Clear
10:54 AM 66.0 °F - 23.0 °F 20% 30.17 in 10.0 mi Variable 5.8 mph - N/A   Clear
11:54 AM 69.1 °F - 25.0 °F 19% 30.14 in 10.0 mi SW 10.4 mph - N/A   Clear
12:54 PM 70.0 °F - 21.9 °F 16% 30.12 in 10.0 mi SSW 11.5 mph 17.3 mph N/A   Clear
1:54 PM 72.0 °F - 19.0 °F 13% 30.09 in 10.0 mi WSW 10.4 mph 23.0 mph N/A   Clear
2:54 PM 71.1 °F - 19.0 °F 14% 30.08 in 10.0 mi SSW 10.4 mph 18.4 mph N/A   Clear
3:54 PM 73.0 °F - 17.1 °F 12% 30.07 in 10.0 mi WSW 10.4 mph 23.0 mph N/A   Clear
4:54 PM 71.1 °F - 18.0 °F 13% 30.09 in 10.0 mi West 8.1 mph 18.4 mph N/A   Clear
5:54 PM 66.9 °F - 21.0 °F 17% 30.10 in 10.0 mi West 5.8 mph - N/A   Clear
6:54 PM 50.0 °F - 26.1 °F 39% 30.17 in 10.0 mi Calm Calm - N/A   Clear
7:54 PM 44.1 °F - 26.1 °F 49% 30.14 in 9.0 mi Calm Calm - N/A   Clear
8:54 PM 41.0 °F - 26.1 °F 55% 30.09 in 10.0 mi Calm Calm - N/A   Clear
9:54 PM 36.0 °F - 24.1 °F 62% 30.12 in 10.0 mi Calm Calm - N/A   Clear
10:54 PM 33.1 °F - 23.0 °F 66% 30.11 in 10.0 mi Calm Calm - N/A   Clear
11:54 PM 34.0 °F - 23.0 °F 64% 30.08 in 10.0 mi Calm Calm - N/A   Clear